EDT,Max TemperatureF,Mean TemperatureF,Min TemperatureF,Max Dew PointF,MeanDew PointF,Min DewpointF,Max Humidity, Mean Humidity, Min Humidity, Max Sea Level PressureIn, Mean Sea Level PressureIn, Min Sea Level PressureIn, Max VisibilityMiles, Mean VisibilityMiles, Min VisibilityMiles, Max Wind SpeedMPH, Mean Wind SpeedMPH, Max Gust SpeedMPH,PrecipitationIn, CloudCover, Events, WindDirDegrees
2011-10-1,48,46,44,46,43,35,100,90,68,30.03,29.90,29.76,10,7,2,17,7,25,0.11,8,Rain,345
2011-10-2,46,42,39,45,38,34,96,86,68,30.00,29.96,29.92,10,9,4,13,8,21,0.20,8,Rain,347
2011-10-3,57,52,46,52,48,45,100,92,77,30.15,30.03,29.95,10,7,2,9,4,,0.12,7,Rain,337
2011-10-4,64,57,51,53,50,44,100,87,50,30.25,30.19,30.13,10,7,0,12,4,18,0.17,6,Fog-Rain,299
2011-10-5,70,58,46,54,49,45,93,78,47,30.32,30.27,30.23,10,10,10,8,6,,0.00,0,,271
2011-10-6,71,58,46,51,44,36,80,64,40,30.40,30.35,30.32,10,10,10,7,3,,0.00,0,,70
2011-10-7,75,60,46,51,46,40,89,64,39,30.46,30.41,30.36,10,10,9,5,1,,0.00,0,,130
2011-10-8,75,64,53,55,51,46,78,65,44,30.50,30.44,30.40,10,10,10,7,1,,0.00,0,,210
2011-10-9,78,66,54,55,51,48,83,63,36,30.47,30.41,30.36,10,10,10,8,1,,0.00,0,,200
2011-10-10,75,60,48,55,51,46,93,70,46,30.36,30.30,30.21,10,9,5,5,1,,0.00,0,,92
2011-10-11,75,62,50,54,51,46,86,63,45,30.20,30.13,30.06,10,10,10,7,2,,0.00,0,,95
2011-10-12,63,59,55,56,54,53,100,91,72,30.05,29.93,29.80,10,5,2,12,5,16,0.43,8,Rain,92
2011-10-13,68,60,55,61,57,54,100,89,73,29.78,29.60,29.43,10,7,2,8,3,,0.68,8,Rain,90
2011-10-14,61,54,48,59,52,42,100,88,64,29.55,29.43,29.36,10,8,2,16,8,26,0.43,8,Rain,236
2011-10-15,52,47,42,43,40,36,93,77,54,29.83,29.61,29.54,10,8,2,21,13,34,0.18,8,Rain,247
2011-10-16,51,48,46,48,43,35,94,80,59,29.91,29.78,29.67,10,9,5,12,8,21,0.04,7,Rain,228
2011-10-17,60,50,42,41,32,22,89,54,24,29.82,29.78,29.72,10,10,10,18,8,31,0.01,0,,231
2011-10-18,57,52,48,42,35,29,80,57,42,29.88,29.81,29.75,10,10,10,14,6,21,0.01,5,Rain,205
2011-10-19,66,55,46,56,50,41,94,81,61,29.71,29.43,29.20,10,9,3,17,11,29,0.00,6,Rain,72
2011-10-20,53,48,41,54,42,36,94,88,73,29.64,29.33,29.21,10,7,2,18,10,31,0.65,8,Rain,197
2011-10-21,46,44,42,43,41,39,93,91,86,30.10,29.95,29.68,10,9,4,13,9,21,0.12,8,Rain,236
2011-10-22,53,46,41,41,38,33,93,76,53,30.13,30.11,30.08,10,9,6,8,4,,0.01,5,Rain,232
2011-10-23,59,49,39,39,37,35,86,66,44,30.13,30.08,30.04,10,10,10,9,3,,0.00,1,,185
2011-10-24,54,50,46,48,42,36,94,77,59,30.10,29.99,29.94,10,9,2,13,6,18,0.09,5,Rain,212
2011-10-25,60,48,37,42,37,35,89,65,42,30.21,30.11,29.94,10,10,10,8,4,,0.00,2,,210
2011-10-26,57,52,48,52,48,37,100,86,55,29.91,29.80,29.75,10,7,1,10,6,17,0.65,7,Rain,239
2011-10-27,46,40,33,46,37,31,97,92,87,30.12,29.87,29.75,10,10,5,13,8,22,0.30,7,Rain,6
2011-10-28,42,35,28,34,30,27,100,90,67,30.27,30.17,30.09,10,4,0,7,2,,0.01,3,Fog,174
2011-10-29,37,34,30,34,32,28,100,90,79,30.15,30.09,30.04,10,7,1,6,2,,0.06,6,Rain-Snow,85
2011-10-30,41,33,27,34,30,26,100,91,79,30.31,30.22,30.10,10,4,0,7,1,,0.01,3,Fog,170
2011-10-31,48,40,33,39,34,30,92,78,58,30.26,30.20,30.13,10,10,4,8,3,,0.00,4,Rain,185